Content
SEND FEEDBACK

Daily
Averages
Monthly
Summary
United States of America

ST. LOUIS, MISSOURI


Home > North America > United States > Missouri
Elevation: 535 feet     Latitude: 38 45N     Longitude: 090 22W

WEATHER
 
SELECT A DAY
Number of Records: 196,649;   Date Range: 1/1/95 - 9/18/14
 
SHARE

PRINT THIS DATA

[ ← Previous Day ]
WEATHER ALMANAC - JUNE 19, 2013
[ Next Day → ]
[ °C ]   °F
Weather ElementAverageHighLow
Temperature74.4 °F87.1 °F (3:54 pm)63 °F (4:54 am)
Dewpoint63 °F66.9 °F (9:54 pm)59 °F (5:54 pm)
Humidity70.4 %93 % (2:54 am)40 % (3:54 pm)
Barometer30.01 in30.05 in (8:54 am)29.96 in (1:54 am)
Wind Speed2.1 mph6.9 mph (2:54 pm)
Weather ElementAverage
Visibility9.9 mi
Wind DirectionENE (58.3 °)

Weather ElementTotal
Precipitation---
Cooling Degree Days10.1 (Base 65)
Growing Degree Days25.1 (Base 50)
Averaged from 23 records on June 19, 2013
WEATHER CONDITIONS BREAKOUT
WIND DIRECTION BREAKOUT
WEATHER BY HOUR - JUNE 19, 2013
[ °C ]   °F
Local TimeTemperatureDewpointHumidityBarometerVisibilityWind DirectionWind SpeedGust SpeedPrecipitationEventsConditions
1:54 AM64.9 °F62.1 °F90 %29.96 in10.0 miCalmClear
2:54 AM64.0 °F62.1 °F93 %29.98 in10.0 miCalmClear
3:54 AM64.0 °F62.1 °F93 %29.98 in10.0 miCalmClear
4:54 AM63.0 °F61.0 °F93 %29.99 in9.0 miCalmClear
5:54 AM64.0 °F61.0 °F90 %30.01 in8.0 miCalmClear
6:54 AM68.0 °F62.1 °F81 %30.03 in10.0 miNNE (30°)3.5 mphClear
7:54 AM70.0 °F63.0 °F78 %30.04 in10.0 miCalmMostly Cloudy
8:54 AM71.1 °F64.0 °F78 %30.05 in10.0 miEast (90°)4.6 mphMostly Cloudy
9:54 AM73.9 °F64.9 °F73 %30.05 in10.0 miESE (110°)4.6 mphClear
10:54 AM78.1 °F64.9 °F64 %30.05 in10.0 miCalmClear
11:54 AM80.1 °F66.0 °F62 %30.05 in10.0 miENE (70°)4.6 mphScattered Clouds
12:54 PM81.0 °F66.0 °F60 %30.04 in10.0 miVariable5.8 mphScattered Clouds
1:54 PM82.9 °F63.0 °F51 %30.02 in10.0 miCalmScattered Clouds
2:54 PM84.0 °F61.0 °F46 %30.01 in10.0 miEast (80°)6.9 mphMostly Cloudy
3:54 PM87.1 °F60.1 °F40 %30.00 in10.0 miNorth (360°)3.5 mphClear
4:54 PM84.9 °F60.1 °F43 %30.01 in10.0 miVariable5.8 mphClear
5:54 PM84.9 °F59.0 °F41 %29.99 in10.0 miWNW (290°)3.5 mphMostly Cloudy
6:54 PM84.0 °F61.0 °F46 %29.99 in10.0 miNW (310°)4.6 mphClear
7:54 PM78.1 °F64.9 °F64 %29.99 in10.0 miCalmClear
8:54 PM73.0 °F64.9 °F76 %30.00 in10.0 miCalmScattered Clouds
9:54 PM72.0 °F66.9 °F84 %30.02 in10.0 miCalmClear
10:54 PM70.0 °F66.0 °F87 %30.03 in10.0 miCalmClear
11:54 PM68.0 °F64.0 °F87 %30.04 in10.0 miCalmClear
Hourly data recorded from KSUS, located miles away from St. Louis, Missouri







STORIES FROM OUR PARTNERS